Berlin, NH

11:29 AM EDT on August 22, 2017 (GMT -0400)
Berlin Municipal

Weather History for KBML - December, 1997

Change the Weather History Date:

Wednesday, December 10, 1997

  Actual Average Record
Temperature  
Mean Temperature 15 °F -  
Max Temperature 30 °F 30 °F 54 °F (2008)
Min Temperature 0 °F 13 °F -15 °F (2003)
Degree Days  
Heating Degree Days 50    
Moisture  
Dew Point 6 °F    
Average Humidity 83    
Maximum Humidity 92    
Minimum Humidity 56    
Precipitation  
Precipitation 0.00 in - - ()
Sea Level Pressure  
Sea Level Pressure 29.95 in    
Wind  
Wind Speed 1 mph (North)    
Max Wind Speed 8 mph    
Max Gust Speed -    
Visibility 10 miles    
Events      
Averages and records for this station are not official NWS values.
T = Trace of Precipitation, MM = Missing Value Source: NWS Daily Summary

Daily Weather History Graph

Daily Weather History Graph

Search for Another Location

Airport or City:

Trip Planner

Search our weather history database for the weather conditions in past years. The results will help you decide how hot, cold, wet, or windy it might be!

Date:

Astronomy

Dec. 10, 1997 Rise Set
Actual Time 7:10 AM EST 4:04 PM EST
Civil Twilight 6:37 AM EST 4:37 PM EST
Nautical Twilight 6:00 AM EST 5:14 PM EST
Astronomical Twilight 5:25 AM EST 5:50 PM EST
Moon 2:06 PM EST (12/10) 2:49 AM EST (12/10)
Length of Visible Light 10h 00m
Length of Day
8h 53m
Waxing Gibbous, 86% of the Moon is Illuminated
Dec 10
Waxing Gibbous
Dec 13
Full
Dec 21
Last Quarter
Dec 29
New
Jan 5
First Quarter

Hourly Weather History & Observations

Time (EST) Temp. Windchill Dew Point Humidity Pressure Visibility Wind Dir Wind Speed Gust Speed Precip Events Conditions
12:52 AM 10.0 °F - 8.1 °F 92% 29.99 in 10.0 mi Calm Calm - N/A   Clear
1:52 AM 8.1 °F - 6.1 °F 92% 29.99 in 10.0 mi Calm Calm - N/A   Clear
2:52 AM 6.1 °F - 3.9 °F 91% 29.98 in 10.0 mi Calm Calm - N/A   Clear
3:21 AM 6.8 °F - 3.2 °F 85% 29.90 in 10.0 mi Calm Calm - N/A   Scattered Clouds
3:52 AM 6.1 °F - 1.9 °F 83% 29.98 in 10.0 mi Calm Calm - N/A   Partly Cloudy
4:52 AM 5.0 °F - 1.9 °F 87% 29.98 in 10.0 mi Calm Calm - N/A   Clear
5:12 AM 3.2 °F - -0.4 °F 85% 29.91 in 10.0 mi Calm Calm - N/A   Scattered Clouds
5:52 AM 3.0 °F - 1.0 °F 91% 30.00 in 10.0 mi Calm Calm - N/A   Clear
6:07 AM 1.4 °F - -0.4 °F 92% 29.92 in 10.0 mi Calm Calm - N/A   Partly Cloudy
6:52 AM 1.0 °F - -4.0 °F 79% 30.01 in 10.0 mi Calm Calm - N/A   Partly Cloudy
7:05 AM -0.4 °F - -4.0 °F 85% 29.92 in 10.0 mi Calm Calm - N/A   Mostly Cloudy
7:52 AM 1.0 °F - -2.9 °F 83% 29.99 in 10.0 mi Calm Calm - N/A   Mostly Cloudy
8:16 AM 1.4 °F - -0.4 °F 92% 29.91 in 10.0 mi Calm Calm - N/A   Scattered Clouds
8:32 AM 3.2 °F - 1.4 °F 92% 29.90 in 10.0 mi Calm Calm - N/A   Mostly Cloudy
8:52 AM 5.0 °F - 3.0 °F 92% 29.98 in 6.0 mi Calm Calm - N/A   Mostly Cloudy
9:03 AM 6.8 °F - 5.0 °F 92% 29.91 in 9.0 mi Calm Calm - N/A   Scattered Clouds
9:52 AM 12.0 °F - 9.0 °F 88% 29.99 in 9.0 mi Calm Calm - N/A   Clear
10:52 AM 19.0 °F - 14.0 °F 81% 29.98 in 9.0 mi Calm Calm - N/A   Clear
11:52 AM 24.1 °F 19.7 °F 16.0 °F 71% 29.93 in 10.0 mi North 3.5 mph - N/A   Clear
12:52 PM 28.9 °F 25.2 °F 15.1 °F 56% 29.91 in 10.0 mi North 3.5 mph - N/A   Clear
1:52 PM 30.0 °F - 16.0 °F 56% 29.91 in 10.0 mi Calm Calm - N/A   Clear
2:52 PM 28.0 °F 24.2 °F 17.1 °F 63% 29.90 in 10.0 mi NNW 3.5 mph - N/A   Clear
3:52 PM 25.0 °F 19.3 °F 17.1 °F 72% 29.91 in 10.0 mi NNW 4.6 mph - N/A   Clear
4:52 PM 24.1 °F 18.2 °F 17.1 °F 75% 29.92 in 10.0 mi NNW 4.6 mph - N/A   Clear
5:52 PM 21.0 °F 14.6 °F 15.1 °F 78% 29.94 in 10.0 mi North 4.6 mph - N/A   Clear
6:52 PM 21.0 °F 11.4 °F 15.1 °F 78% 29.95 in 10.0 mi North 8.1 mph - N/A   Clear
7:52 PM 17.1 °F 11.7 °F 12.9 °F 84% 29.96 in 10.0 mi North 3.5 mph - N/A   Clear
8:52 PM 12.0 °F - 10.0 °F 92% 29.96 in 10.0 mi Calm Calm - N/A   Clear
9:52 PM 7.0 °F - 3.9 °F 87% 29.96 in 10.0 mi Calm Calm - N/A   Clear
10:52 PM 3.9 °F - -0.0 °F 84% 29.96 in 10.0 mi Calm Calm - N/A   Clear
11:52 PM 3.0 °F - -0.9 °F 84% 29.96 in 10.0 mi Calm Calm - N/A   Clear